+ View the NASA Portal
+ Center for Near-Earth Object Studies
IMPORTANT:
The SSD Announcement email list is now available. Major changes are coming in the near future, including possible hostname and/or URL changes. To be notified of such changes, subscribe to this email list.
Please visit
this page
for more details.
Don't show this message again
JPL Small-Body Database Browser
Search:
[
help
]
109753 (2001 RV69)
Classification:
Main-belt Asteroid
SPK-ID:
2109753
[
Ephemeris
|
Orbit Diagram
|
Orbital Elements
|
Mission Design
|
Physical Parameters
|
Discovery Circumstances
|
Close-Approach Data
]
[ show orbit diagram ]
Orbital Elements at Epoch 2458600.5 (2019-Apr-27.0) TDB
Reference:
JPL 16
(heliocentric ecliptic J2000)
Element
Value
Uncertainty (1-sigma)
Units
e
.2180962971973162
4.9922e-08
a
3.082445281468762
2.1688e-08
au
q
2.410175379267085
1.5784e-07
au
i
8.549182361025238
7.4819e-06
deg
node
206.8233673698617
3.3882e-05
deg
peri
108.969212752029
3.899e-05
deg
M
125.6594530139851
1.5193e-05
deg
t
p
2457910.523729461017
(2017-Jun-06.02372946)
8.5243e-05
TDB
period
1976.703315479094
5.41
2.0862e-05
5.712e-08
d
yr
n
.1821214125462965
1.9221e-09
deg/d
Q
3.754715183670438
2.6418e-08
au
Orbit Determination Parameters
# obs. used (total)
606
data-arc span
7207 days (19.73 yr)
first obs. used
1999-03-22
last obs. used
2018-12-14
planetary ephem.
DE431
SB-pert. ephem.
SB431-N16
condition code
0
norm. resid. RMS
.55995
source
ORB
producer
Otto Matic
solution date
2019-Jul-13 09:33:13
Additional Information
Earth MOID
= 1.41311 au
Jupiter MOID
= 1.69804 au
T_jup
= 3.174
[ show covariance matrix ]
[
Ephemeris
|
Orbit Diagram
|
Orbital Elements
|
Mission Design
|
Physical Parameters
|
Discovery Circumstances
|
Close-Approach Data
]
Physical Parameter Table
Parameter
Symbol
Value
Units
Sigma
Reference
Notes
absolute magnitude
H
14.8
n/a
MPO381927
diameter
diameter
6.761
km
0.293
urn:nasa:pds:neowise_diameters_albedos::2.0[mainbelt] (http://adsabs.harvard.edu/abs/2011ApJ...741...68M)
geometric albedo
albedo
0.056
0.006
urn:nasa:pds:neowise_diameters_albedos::2.0[mainbelt] (http://adsabs.harvard.edu/abs/2011ApJ...741...68M)
109753 (2001 RV69)
Discovered 2001-Sep-10 by LINEAR at Socorro
Reference:
20051019/Numbers.arc
Last Updated:
2005-10-26
[ show close-approach data ]
Alternate Designations
2001 RV69
= 2000 LF33
[
Ephemeris
|
Orbit Diagram
|
Orbital Elements
|
Mission Design
|
Physical Parameters
|
Discovery Circumstances
|
Close-Approach Data
]
2019-Dec-10 19:38 UT
(server date/time)
Site Manager:
Ryan S. Park
Webmaster
:
Alan B. Chamberlin